This demonstration page uses our WeatherBlox Daily Observations layout. Learn more.

41.55636, -103.73856

Hourly Observations for May 4, 2015

Temp ( °F °C ) Dew Point ( °F °C ) Humidity (%) Winds ( mph kmh ) Pressure ( in mb ) Visibility ( mi km ) Precip ( " mm )
12:53 am 00:53 Mostly Cloudy 54 12.2 39 3.9 57 57 E 10 17 29.97 1015 10 16.0934 0 0
1:53 am 01:53 Clear 53 11.7 39 3.9 59 59 E 8 13 29.98 1015 10 16.0934 0 0
2:53 am 02:53 Mostly Cloudy 51 10.6 40 4.4 66 66 ESE 7 11 30.01 1016 10 16.0934 0 0
3:53 am 03:53 Partly Cloudy 51 10.6 38 3.3 61 61 ESE 8 13 30.02 1017 10 16.0934 0 0
4:53 am 04:53 Cloudy 50 10 38 3.3 63 63 ESE 8 13 30.02 1017 10 16.0934 0 0
5:53 am 05:53 Cloudy 51 10.6 37 2.8 59 59 E 9 15 30.03 1017 10 16.0934 0 0
6:53 am 06:53 Cloudy 51 10.6 38 3.3 61 61 E 8 13 30.06 1018 10 16.0934 0 0
7:53 am 07:53 Cloudy with Light Rain 48 8.9 40 4.4 74 74 E 10 17 30.09 1019 6 9.65604 0.02 0.508
8:53 am 08:53 Cloudy 49 9.4 42 5.6 77 77 E 8 13 30.11 1020 10 16.0934 0.03 0.762
9:53 am 09:53 Cloudy 51 10.6 41 5 69 69 SSE 8 13 30.11 1020 10 16.0934 0 0
10:53 am 10:53 Cloudy 53 11.7 35 1.7 51 51 SE 10 17 30.13 1020 10 16.0934 0 0
11:53 am 11:53 Cloudy 53 11.7 35 1.7 51 51 ESE 15 24 30.13 1020 10 16.0934 0 0
12:53 pm 12:53 Cloudy 55 12.8 35 1.7 47 47 E 13 20 30.09 1019 10 16.0934 0 0
1:53 pm 13:53 Mostly Cloudy 59 15 36 2.2 42 42 ESE 16 26 30.07 1018 10 16.0934 0 0
2:53 pm 14:53 Mostly Cloudy 60 15.6 38 3.3 44 44 SE 12 19 30.05 1018 10 16.0934 0 0
3:53 pm 15:53 Mostly Cloudy 62 16.7 38 3.3 41 41 ESE 13 20 30.02 1017 10 16.0934 0 0
4:53 pm 16:53 Mostly Cloudy 60 15.6 37 2.8 42 42 ESE 18 30 30.03 1017 10 16.0934 0 0
5:53 pm 17:53 Sunny 61 16.1 36 2.2 39 39 SE 17 28 30.02 1017 10 16.0934 0 0
6:53 pm 18:53 Sunny 58 14.4 37 2.8 46 46 ESE 14 22 30.02 1017 10 16.0934 0 0
7:53 pm 19:53 Sunny 54 12.2 35 1.7 49 49 SE 16 26 30.05 1018 10 16.0934 0 0
8:53 pm 20:53 Clear 51 10.6 38 3.3 61 61 ESE 13 20 30.07 1018 10 16.0934 0 0
9:53 pm 21:53 Mostly Cloudy 50 10 40 4.4 68 68 ESE 9 15 30.08 1019 10 16.0934 0 0
10:53 pm 22:53 Cloudy 51 10.6 40 4.4 66 66 ESE 15 24 30.07 1018 10 16.0934 0 0
11:53 pm 23:53 Cloudy 50 10 41 5 71 71 SE 8 13 30.06 1018 10 16.0934 0 0

Powered by AerisWeather